When you browse on this site, cookies collect data to enhance your experience and personalize the content and advertising you see.
Visit our Privacy Policy to learn more. By continuing to use the site, you agree to this use of cookies and data.
  • In United Kingdom
  • List of Countries
  • For 7 days
  • Water Temperature
  • Satellite Maps
  • Weather Map
  • Weather Widgets
  • user-avatar
    Login

    Hourly Weather Mokoa

    Today, 26 April, Friday

    Time Temperature Precipitation Wind Pressure Humidity
    00:00 +29°C° 0 mm 5 mps 754 mmHg 77%
    01:00 +29°C° 0 mm 5 mps 754 mmHg 79%
    02:00 +29°C° 0 mm 5 mps 754 mmHg 79%
    03:00 +29°C° 0 mm 5 mps 754 mmHg 80%
    04:00 +29°C° 0 mm 5 mps 754 mmHg 80%
    05:00 +29°C° 0 mm 5 mps 754 mmHg 79%
    06:00 +29°C° 0 mm 6 mps 754 mmHg 78%
    07:00 +29°C° 0 mm 6 mps 754 mmHg 77%
    08:00 +32°C° 0.1 mm 7 mps 755 mmHg 71%
    09:00 +33°C° 0.1 mm 7 mps 755 mmHg 65%
    10:00 +34°C° 0.1 mm 7 mps 755 mmHg 60%
    11:00 +35°C° 0 mm 7 mps 754 mmHg 57%
    12:00 +36°C° 0 mm 7 mps 754 mmHg 53%
    13:00 +36°C° 0 mm 6 mps 753 mmHg 50%
    14:00 +36°C° 0 mm 6 mps 752 mmHg 50%
    15:00 +36°C° 0 mm 6 mps 752 mmHg 50%
    16:00 +36°C° 0 mm 6 mps 751 mmHg 50%
    17:00 +35°C° 0 mm 6 mps 752 mmHg 55%
    18:00 +34°C° 0 mm 6 mps 752 mmHg 60%
    19:00 +32°C° 0 mm 6 mps 753 mmHg 65%
    20:00 +32°C° 0 mm 6 mps 753 mmHg 68%
    21:00 +30°C° 0 mm 5 mps 754 mmHg 71%
    22:00 +30°C° 0 mm 5 mps 754 mmHg 73%
    23:00 +30°C° 0 mm 5 mps 754 mmHg 75%

    Tomorrow, 27 April, Saturday

    Time Temperature Precipitation Wind Pressure Humidity
    00:00 +29°C° 0 mm 5 mps 754 mmHg 77%
    01:00 +29°C° 0 mm 5 mps 753 mmHg 78%
    02:00 +29°C° 0.3 mm 5 mps 753 mmHg 79%
    03:00 +29°C° 0.3 mm 5 mps 753 mmHg 80%
    04:00 +29°C° 0.3 mm 5 mps 753 mmHg 81%
    05:00 +29°C° 0.1 mm 5 mps 753 mmHg 79%
    06:00 +29°C° 0.1 mm 5 mps 754 mmHg 78%
    07:00 +29°C° 0.1 mm 6 mps 754 mmHg 77%
    08:00 +32°C° 0.1 mm 6 mps 754 mmHg 71%
    09:00 +33°C° 0.1 mm 6 mps 755 mmHg 66%
    10:00 +34°C° 0.1 mm 7 mps 755 mmHg 60%
    11:00 +35°C° 0 mm 7 mps 754 mmHg 57%
    12:00 +36°C° 0 mm 6 mps 753 mmHg 54%
    13:00 +36°C° 0 mm 6 mps 753 mmHg 50%
    14:00 +36°C° 0 mm 6 mps 752 mmHg 52%
    15:00 +35°C° 0 mm 6 mps 751 mmHg 53%
    16:00 +35°C° 0 mm 6 mps 751 mmHg 54%
    17:00 +34°C° 0 mm 6 mps 751 mmHg 58%
    18:00 +33°C° 0 mm 5 mps 752 mmHg 63%
    19:00 +32°C° 0 mm 5 mps 752 mmHg 67%
    20:00 +30°C° 0.7 mm 5 mps 753 mmHg 71%
    21:00 +30°C° 0.7 mm 5 mps 753 mmHg 74%
    22:00 +29°C° 0.7 mm 5 mps 754 mmHg 78%
    23:00 +29°C° 0.2 mm 5 mps 754 mmHg 79%

    Day after tomorrow, 28 April, Sunday

    Time Temperature Precipitation Wind Pressure Humidity
    00:00 +29°C° 0.2 mm 5 mps 753 mmHg 79%
    01:00 +29°C° 0.2 mm 5 mps 753 mmHg 80%
    02:00 +28°C° 0 mm 5 mps 752 mmHg 81%
    03:00 +28°C° 0 mm 5 mps 752 mmHg 82%
    04:00 +28°C° 0 mm 5 mps 752 mmHg 82%
    05:00 +29°C° 0 mm 5 mps 753 mmHg 81%
    06:00 +29°C° 0 mm 6 mps 753 mmHg 79%
    07:00 +29°C° 0 mm 6 mps 753 mmHg 77%
    08:00 +30°C° 0 mm 6 mps 754 mmHg 72%
    09:00 +33°C° 0 mm 7 mps 754 mmHg 66%
    10:00 +34°C° 0 mm 7 mps 754 mmHg 60%
    11:00 +34°C° 0 mm 7 mps 754 mmHg 57%
    12:00 +35°C° 0 mm 7 mps 753 mmHg 54%
    13:00 +36°C° 0 mm 7 mps 752 mmHg 52%
    14:00 +35°C° 0 mm 7 mps 752 mmHg 52%
    15:00 +35°C° 0 mm 6 mps 751 mmHg 52%
    16:00 +35°C° 0 mm 6 mps 751 mmHg 53%
    17:00 +34°C° 0 mm 6 mps 751 mmHg 57%
    18:00 +33°C° 0 mm 5 mps 752 mmHg 61%
    19:00 +32°C° 0 mm 5 mps 752 mmHg 65%
    20:00 +30°C° 0 mm 5 mps 753 mmHg 68%
    21:00 +30°C° 0 mm 5 mps 753 mmHg 71%
    22:00 +29°C° 0 mm 5 mps 754 mmHg 73%
    23:00 +29°C° 0 mm 5 mps 753 mmHg 75%

    29 April, Monday

    Time Temperature Precipitation Wind Pressure Humidity
    00:00 +29°C° 0 mm 6 mps 753 mmHg 76%
    01:00 +29°C° 0 mm 6 mps 752 mmHg 78%
    02:00 +29°C° 0 mm 6 mps 752 mmHg 78%
    03:00 +28°C° 0 mm 6 mps 752 mmHg 79%
    04:00 +28°C° 0 mm 6 mps 752 mmHg 80%
    05:00 +29°C° 0 mm 6 mps 753 mmHg 78%
    06:00 +29°C° 0 mm 7 mps 753 mmHg 76%
    07:00 +29°C° 0 mm 7 mps 754 mmHg 74%
    08:00 +32°C° 0 mm 7 mps 754 mmHg 68%
    09:00 +33°C° 0 mm 8 mps 754 mmHg 62%
    10:00 +34°C° 0 mm 8 mps 754 mmHg 56%
    11:00 +35°C° 0 mm 8 mps 754 mmHg 53%
    12:00 +37°C° 0 mm 8 mps 753 mmHg 50%
    13:00 +37°C° 0 mm 8 mps 752 mmHg 47%
    14:00 +37°C° 0 mm 8 mps 752 mmHg 48%
    15:00 +35°C° 0 mm 7 mps 752 mmHg 49%
    16:00 +35°C° 0 mm 7 mps 751 mmHg 50%
    17:00 +34°C° 0 mm 7 mps 752 mmHg 54%
    18:00 +33°C° 0 mm 7 mps 752 mmHg 57%
    19:00 +32°C° 0 mm 6 mps 753 mmHg 60%
    20:00 +30°C° 0 mm 6 mps 753 mmHg 63%
    21:00 +30°C° 0 mm 6 mps 754 mmHg 67%
    22:00 +29°C° 0 mm 6 mps 754 mmHg 70%
    23:00 +29°C° 0 mm 6 mps 754 mmHg 72%

    30 April, Tuesday

    Time Temperature Precipitation Wind Pressure Humidity
    00:00 +29°C° 0 mm 6 mps 753 mmHg 73%
    01:00 +29°C° 0 mm 7 mps 753 mmHg 75%
    02:00 +29°C° 0 mm 6 mps 753 mmHg 75%
    03:00 +29°C° 0 mm 6 mps 753 mmHg 76%
    04:00 +28°C° 0 mm 6 mps 753 mmHg 76%
    05:00 +29°C° 0 mm 7 mps 753 mmHg 74%
    06:00 +29°C° 0 mm 7 mps 754 mmHg 72%
    07:00 +30°C° 0 mm 7 mps 754 mmHg 70%
    08:00 +32°C° 0 mm 8 mps 754 mmHg 65%
    09:00 +33°C° 0 mm 8 mps 754 mmHg 60%
    10:00 +34°C° 0 mm 9 mps 755 mmHg 55%
    11:00 +35°C° 0 mm 8 mps 754 mmHg 51%
    12:00 +37°C° 0 mm 8 mps 753 mmHg 48%
    13:00 +38°C° 0 mm 8 mps 752 mmHg 45%
    14:00 +38°C° 0 mm 8 mps 752 mmHg 46%
    15:00 +37°C° 0 mm 8 mps 752 mmHg 46%
    16:00 +37°C° 0 mm 8 mps 751 mmHg 47%
    17:00 +35°C° 0 mm 8 mps 752 mmHg 51%
    18:00 +33°C° 0 mm 7 mps 752 mmHg 55%
    19:00 +32°C° 0 mm 7 mps 753 mmHg 59%
    20:00 +30°C° 0 mm 7 mps 754 mmHg 62%
    21:00 +30°C° 0 mm 7 mps 754 mmHg 65%
    22:00 +29°C° 0 mm 8 mps 755 mmHg 69%
    23:00 +29°C° 0 mm 8 mps 754 mmHg 70%

    1 May, Wednesday

    Time Temperature Precipitation Wind Pressure Humidity
    00:00 +29°C° 0 mm 8 mps 754 mmHg 71%
    01:00 +29°C° 0 mm 8 mps 754 mmHg 72%
    02:00 +29°C° 0 mm 8 mps 754 mmHg 72%
    03:00 +29°C° 0 mm 7 mps 754 mmHg 73%
    04:00 +29°C° 0 mm 7 mps 754 mmHg 73%
    05:00 +29°C° 0 mm 7 mps 754 mmHg 71%
    06:00 +29°C° 0 mm 8 mps 755 mmHg 70%
    07:00 +31°C° 0 mm 8 mps 755 mmHg 68%
    08:00 +32°C° 0 mm 8 mps 755 mmHg 63%
    09:00 +33°C° 0 mm 8 mps 755 mmHg 58%
    10:00 +35°C° 0 mm 9 mps 755 mmHg 53%
    11:00 +37°C° 0 mm 9 mps 754 mmHg 50%
    12:00 +37°C° 0 mm 9 mps 753 mmHg 47%
    13:00 +38°C° 0 mm 9 mps 752 mmHg 44%
    14:00 +38°C° 0 mm 9 mps 752 mmHg 45%
    15:00 +37°C° 0 mm 9 mps 752 mmHg 46%
    16:00 +37°C° 0 mm 9 mps 751 mmHg 47%
    17:00 +34°C° 0 mm 8 mps 752 mmHg 52%
    18:00 +33°C° 0 mm 8 mps 752 mmHg 56%
    19:00 +32°C° 0 mm 7 mps 753 mmHg 61%
    20:00 +30°C° 0 mm 7 mps 753 mmHg 64%
    21:00 +31°C° 0 mm 8 mps 754 mmHg 66%
    22:00 +31°C° 0 mm 8 mps 754 mmHg 69%
    23:00 +29°C° 0 mm 8 mps 754 mmHg 70%
    Show more